Location: Ferchesar
(52.6477°N, 12.4298°E)
Time: 09:47:46
(UTC+01:00)

Vanguard 3 - Pass Details

Date: 09 December 2021
Orbit: 508 x 3260 km, 33.3° (Epoch: 25 January)

Event Time Altitude Azimuth Distance (km) Brightness Sun altitude
Exits shadow 05:46:27 13° 249° (WSW) 5,892 11.0 -20.4°
Maximum altitude 06:01:33 37° 195° (SSW) 4,059 10.6 -18.1°
Drops below altitude 10° 06:15:00 10° 135° (SE) 4,973 12.1 -16.2°
Sets 06:18:40 0° 127° (SE) 5,635 12.8 -15.6°
